Location: Unspecified
(50.7693°N, 0.0000°E)
Time: 21:08:56
(UTC+00:00)

Vanguard 1 Rocket - Pass Details

Date: 28 June 2019
Orbit: 651 x 4225 km, 34.3° (Epoch: 16 July)

Event Time Altitude Azimuth Distance (km) Brightness Sun altitude
Rises 17:33:18 0° 251° (WSW) 7,950 13.2 22.4°
Reaches altitude 10° 17:39:50 10° 245° (WSW) 6,473 12.7 21.4°
Maximum altitude 17:55:55 38° 187° (S) 3,137 10.3 18.9°
Drops below altitude 10° 18:05:02 10° 124° (ESE) 3,709 10.0 17.6°
Sets 18:07:39 0° 115° (ESE) 4,344 10.3 17.2°
